User: anonymous   Login
Location: Unspecified
(0.0000°N, 0.0000°E)
Time: 00:32:49
(UTC+00:00)
Language:

Uosat F - Orbit

View from above orbital plane
View from above orbital plane
View from above satellite
View from above satellite

Ground track
Ground track

The orbit data is extracted from the following two-line orbital elements,

1 21575U 91050B   21023.77399052  .00000005  00000-0  15757-4 0  9999
2 21575  98.6032  82.4638 0006843 342.5160  17.5792 14.40943722550875
Epoch (UTC): 23 January 2021 18:34:32
Eccentricity: 0.0006843
inclination: 98.6032°
perigee height: 750 km
apogee height: 760 km
right ascension of ascending node: 82.4638°
argument of perigee: 342.5160°
revolutions per day: 14.40943722
mean anomaly at epoch: 17.5792°
orbit number at epoch: 55087

The dashed part of the orbit path shows where the satellite is in the earth's shadow,  

DLR